This is the latest recevied weather packets stored in our database for station/object KD7CIH. If no packets are shown the sender has not sent any weather packets the latest 10 day(s).
| Time | Temp. | Humidity | Pressure | Rain* | Wind** | Luminosity | Snow |
|---|---|---|---|---|---|---|---|
| 1787396234 | 18.89° C | 49% | 1021.9 hPa | 0 mm | - | - | - |
| 1787395807 | 18.89° C | 49% | 1022.1 hPa | 0 mm | - | - | - |
| 1787395506 | 18.33° C | 49% | 1022.3 hPa | 0 mm | - | - | - |
| 1787395205 | 18.89° C | 50% | 1022.3 hPa | 0 mm | - | - | - |
| 1787394906 | 18.89° C | 49% | 1022.2 hPa | 0 mm | - | - | - |
| 1787394733 | 18.89° C | 49% | 1022.1 hPa | 0 mm | - | - | - |
| 1787394307 | 18.89° C | 49% | 1021.9 hPa | 0 mm | - | - | - |
| 1787394007 | 18.89° C | 47% | 1021.7 hPa | 0 mm | - | - | - |
| 1787393705 | 18.89° C | 47% | 1021.8 hPa | 0 mm | - | - | - |
| 1787393405 | 18.89° C | 48% | 1021.7 hPa | 0 mm | - | - | - |
| 1787393107 | 18.33° C | 48% | 1021.7 hPa | 0 mm | - | - | - |
| 1787392933 | 18.89° C | 48% | 1021.8 hPa | 0 mm | - | - | - |
| 1787392506 | 18.89° C | 48% | 1021.6 hPa | 0 mm | - | - | - |
| 1787392206 | 18.89° C | 45% | 1021.7 hPa | 0 mm | - | - | - |
| 1787391907 | 18.33° C | 47% | 1021.7 hPa | 0 mm | - | - | - |
| 1787391605 | 18.33° C | 47% | 1021.7 hPa | 0 mm | - | - | - |
| 1787391306 | 18.33° C | 47% | 1021.7 hPa | 0 mm | - | - | - |
| 1787391006 | 18.33° C | 47% | 1021.8 hPa | 0 mm | - | - | - |
| 1787390707 | 18.33° C | 47% | 1021.7 hPa | 0 mm | - | - | - |
| 1787390405 | 18.33° C | 47% | 1021.7 hPa | 0 mm | - | - | - |
| 1787390105 | 18.33° C | 46% | 1021.6 hPa | 0 mm | - | - | - |
| 1787389806 | 18.89° C | 46% | 1021.7 hPa | 0 mm | - | - | - |
| 1787389633 | 18.89° C | 46% | 1021.7 hPa | 0 mm | - | - | - |
| 1787389205 | 18.89° C | 45% | 1021.7 hPa | 0 mm | - | - | - |
| 1787388907 | 18.89° C | 45% | 1021.8 hPa | 0 mm | - | - | - |
* Rain latest hour (hover to see other rain measurements)
** Current wind speed in m/s (hover to see current wind gust speed)